Location: Unspecified
(0.0000°N, 0.0000°E)
Time: 23:26:51
(UTC+00:00)

Hubble Space Telescope - Pass Details

Date: 17 July 2019
Orbit: 536 x 540 km, 28.5° (Epoch: 22 July)

Event Time Altitude Azimuth Distance (km) Brightness Sun altitude
Exits shadow 03:58:40 10° 131° (SE) 1,774 3.6 -29.5°
Drops below altitude 10° 03:58:47 10° 130° (SE) 1,791 3.7 -29.5°
Sets 04:02:21 0° 98° (E) 2,671 5.2 -28.6°
